Location: Derby
(52.9213°N, 1.4761°W)
Time: 17:22:51
(UTC+01:00)

Tiros 1 - Pass Details

Date: 23 May 2025
Orbit: 620 x 651 km, 48.4° (Epoch: 13 June)

Event Time Altitude Azimuth Distance (km) Brightness Sun altitude
Rises 16:19:14 0° 192° (SSW) 2,881 10.8 40.6°
Reaches altitude 10° 16:22:58 10° 161° (SSE) 1,982 9.8 40.1°
Maximum altitude 16:24:37 12° 140° (SE) 1,865 9.5 39.9°
Drops below altitude 10° 16:26:17 10° 118° (ESE) 1,990 9.4 39.6°
Sets 16:30:02 0° 87° (E) 2,907 10.1 39.1°
